Location: Krakow
(50.0830°N, 19.9170°E)
Time: 10:16:24
(UTC+01:00)

Transit 2A - Pass Details

Date: 17 February 2023
Orbit: 591 x 964 km, 66.7° (Epoch: 21 March)

Event Time Altitude Azimuth Distance (km) Brightness Sun altitude
Rises 17:59:30 0° 307° (NW) 3,354 10.1 -9.9°
Reaches altitude 10° 18:02:57 10° 329° (NNW) 2,498 9.0 -10.5°
Maximum altitude 18:06:26 16° 6° (N) 2,171 8.2 -11.0°
Drops below altitude 10° 18:10:03 10° 42° (NE) 2,625 8.3 -11.6°
Enters shadow 18:10:53 - 48° (NE) 2,817 8.4 -11.7°
Sets 18:13:48 0° 63° (ENE) 3,616 - -12.2°
